N5JNG Weather Reports


Display with metric or nautical units.
time (UTC)temp
F
wind
direction
speed
MPH
gust
MPH
rain 1hr
in
rain 24hr
in
rain mn
in
humidity
%
barometer
mb
20220528065318 80 142 6.0 11.0 0.00 0.00 0.00 71 1012.2
20220528064816 80 150 7.0 11.0 0.00 0.00 0.00 71 1012.3
20220528064316 80 152 6.0 11.0 0.00 0.00 0.00 71 1012.4
20220528063814 80 157 6.0 9.0 0.00 0.00 0.00 71 1012.5
20220528063314 80 161 6.0 10.0 0.00 0.00 0.00 71 1012.5
20220528062814 80 155 5.0 10.0 0.00 0.00 0.00 71 1012.5
20220528062315 80 153 5.0 8.0 0.00 0.00 0.00 71 1012.6
20220528061814 80 159 6.0 8.0 0.00 0.00 0.00 71 1012.6
20220528061315 80 160 5.0 8.0 0.00 0.00 0.00 71 1012.6
20220528060814 80 156 5.0 8.0 0.00 0.00 0.00 71 1012.6
20220528060315 80 161 5.0 9.0 0.00 0.00 0.00 71 1012.6
20220528055815 80 160 5.0 9.0 0.00 0.00 0.00 71 1012.7
20220528055314 80 145 5.0 7.0 0.00 0.00 0.00 70 1012.8
20220528054813 80 166 4.0 7.0 0.00 0.00 0.00 70 1012.8
20220528054313 80 165 4.0 7.0 0.00 0.00 0.00 70 1012.8
20220528053812 80 150 4.0 8.0 0.00 0.00 0.00 70 1012.9
20220528053310 80 150 5.0 8.0 0.00 0.00 0.00 70 1012.9
20220528052810 80 158 5.0 9.0 0.00 0.00 0.00 70 1012.9
20220528052312 80 154 5.0 9.0 0.00 0.00 0.00 70 1012.9
20220528051810 80 155 5.0 9.0 0.00 0.00 0.00 70 1012.9
20220528051310 80 153 4.0 7.0 0.00 0.00 0.00 70 1013.0
20220528050810 80 157 5.0 7.0 0.00 0.00 0.00 70 1013.0
20220528050310 80 159 5.0 8.0 0.00 0.00 0.00 70 1013.0
20220528045811 80 140 5.0 8.0 0.00 0.00 0.00 70 1013.1
20220528045311 80 156 6.0 9.0 0.00 0.00 0.00 70 1013.2
20220528044810 80 138 7.0 9.0 0.00 0.00 0.00 70 1013.2
20220528044310 80 134 6.0 9.0 0.00 0.00 0.00 70 1013.2
20220528043810 80 140 6.0 9.0 0.00 0.00 0.00 70 1013.2
20220528043311 80 144 7.0 10.0 0.00 0.00 0.00 70 1013.3
20220528042810 80 136 6.0 10.0 0.00 0.00 0.00 70 1013.2
20220528042312 80 137 5.0 8.0 0.00 0.00 0.00 70 1013.3
20220528041810 80 154 6.0 9.0 0.00 0.00 0.00 70 1013.3
20220528041311 80 157 6.0 9.0 0.00 0.00 0.00 70 1013.2
20220528040814 80 142 5.0 9.0 0.00 0.00 0.00 70 1013.2
20220528040310 80 169 5.0 9.0 0.00 0.00 0.00 70 1013.2
20220528035811 80 164 6.0 9.0 0.00 0.00 0.00 70 1013.1
20220528035308 80 158 7.0 10.0 0.00 0.00 0.00 70 1013.1
20220528034809 80 163 7.0 10.0 0.00 0.00 0.00 70 1013.0
20220528034309 80 165 6.0 9.0 0.00 0.00 0.00 70 1013.1
20220528033808 80 155 6.0 9.0 0.00 0.00 0.00 70 1013.0
20220528033309 80 159 6.0 8.0 0.00 0.00 0.00 70 1013.0
20220528032809 80 179 5.0 7.0 0.00 0.00 0.00 70 1013.0
20220528032308 80 157 5.0 9.0 0.00 0.00 0.00 70 1012.9
20220528031808 81 167 5.0 9.0 0.00 0.00 0.00 70 1012.9
20220528031310 80 148 5.0 8.0 0.00 0.00 0.00 70 1012.9
20220528030809 80 161 5.0 7.0 0.00 0.00 0.00 70 1013.0
20220528030308 81 175 5.0 7.0 0.00 0.00 0.00 70 1012.9
20220528025809 81 153 5.0 8.0 0.00 0.00 0.00 70 1012.9
20220528025310 81 141 5.0 8.0 0.00 0.00 0.00 70 1012.8
20220528024808 81 145 5.0 8.0 0.00 0.00 0.00 70 1012.7
20220528024313 81 138 5.0 8.0 0.00 0.00 0.00 70 1012.7
20220528023809 81 150 5.0 8.0 0.00 0.00 0.00 70 1012.7
20220528023306 81 155 4.0 7.0 0.00 0.00 0.00 70 1012.7
20220528022807 81 140 4.0 7.0 0.00 0.00 0.00 70 1012.7
20220528022307 81 147 5.0 8.0 0.00 0.00 0.00 70 1012.7
20220528021806 81 148 6.0 9.0 0.00 0.00 0.00 70 1012.6
20220528021304 81 135 6.0 10.0 0.00 0.00 0.00 70 1012.6
20220528020804 81 143 6.0 10.0 0.00 0.00 0.00 70 1012.6
20220528020304 82 144 6.0 9.0 0.00 0.00 0.00 70 1012.5
20220528015805 82 155 6.0 9.0 0.00 0.00 0.00 71 1012.5
20220528015305 82 142 6.0 9.0 0.00 0.00 0.00 71 1012.5
20220528014808 82 134 6.0 8.0 0.00 0.00 0.00 72 1012.5
20220528014317 82 148 5.0 8.0 0.00 0.00 0.00 72 1012.5
20220528013811 82 144 5.0 8.0 0.00 0.00 0.00 72 1012.4
20220528013308 82 153 5.0 7.0 0.00 0.00 0.00 73 1012.4
20220528012809 83 146 5.0 8.0 0.00 0.00 0.00 73 1012.3
20220528012302 83 165 5.0 8.0 0.00 0.00 0.00 73 1012.2
20220528011804 83 158 5.0 9.0 0.00 0.00 0.00 74 1012.2
20220528011301 84 150 4.0 9.0 0.00 0.00 0.00 74 1012.2
20220528010807 84 155 4.0 6.0 0.00 0.00 0.00 74 1012.2
20220528010303 84 158 4.0 8.0 0.00 0.00 0.00 73 1012.2
20220528005800 85 153 5.0 8.0 0.00 0.00 0.00 73 1012.1
20220528005304 85 147 5.0 8.0 0.00 0.00 0.00 73 1012.1
20220528004809 85 161 5.0 9.0 0.00 0.00 0.00 73 1012.0
20220528004258 86 154 6.0 9.0 0.00 0.00 0.00 72 1012.0
20220528003808 86 124 6.0 9.0 0.00 0.00 0.00 72 1011.9
20220528003258 86 180 6.0 10.0 0.00 0.00 0.00 71 1012.0
20220528002804 87 166 6.0 10.0 0.00 0.00 0.00 71 1012.0
20220528002259 87 163 5.0 10.0 0.00 0.00 0.00 71 1011.9
20220528001759 87 172 6.0 11.0 0.00 0.00 0.00 71 1011.9
20220528001259 87 163 7.0 11.0 0.00 0.00 0.00 70 1011.9
20220528000808 87 184 7.0 12.0 0.00 0.00 0.00 69 1011.9
20220528000302 88 169 7.0 12.0 0.00 0.00 0.00 69 1011.9
20220527235759 88 151 8.0 13.0 0.00 0.00 0.00 69 1011.8
20220527235302 88 173 8.0 13.0 0.00 0.00 0.00 68 1011.9
20220527234756 89 167 8.0 13.0 0.00 0.00 0.00 67 1012.0
20220527234301 89 167 8.0 13.0 0.00 0.00 0.00 67 1011.9
20220527233805 89 168 9.0 13.0 0.00 0.00 0.00 66 1012.0
20220527233257 89 200 9.0 14.0 0.00 0.00 0.00 66 1012.0
20220527232756 90 155 9.0 14.0 0.00 0.00 0.00 65 1012.1
20220527232317 90 178 8.0 13.0 0.00 0.00 0.00 64 1012.2
20220527232302 90 148 9.0 13.0 0.00 0.00 0.00 66 1012.1
20220527231255 91 180 8.0 12.0 0.00 0.00 0.00 64 1012.2
20220527230801 91 160 8.0 12.0 0.00 0.00 0.00 65 1012.3
20220527230307 92 182 8.0 14.0 0.00 0.00 0.00 62 1012.3
20220527230258 91 146 7.0 11.0 0.00 0.00 0.00 63 1012.3
20220527225300 92 155 8.0 14.0 0.00 0.00 0.00 62 1012.3
20220527224811 92 175 8.0 12.0 0.00 0.00 0.00 61 1012.4
20220527224257 92 152 8.0 11.0 0.00 0.00 0.00 61 1012.4
20220527223803 92 197 8.0 13.0 0.00 0.00 0.00 60 1012.5
20220527223256 92 196 8.0 13.0 0.00 0.00 0.00 60 1012.6
20220527222757 92 173 8.0 14.0 0.00 0.00 0.00 60 1012.6
20220527222252 93 162 9.0 14.0 0.00 0.00 0.00 60 1012.6
20220527221808 93 169 9.0 13.0 0.00 0.00 0.00 58 1012.7
20220527221258 94 196 9.0 13.0 0.00 0.00 0.00 58 1012.8
20220527220757 94 192 9.0 14.0 0.00 0.00 0.00 58 1012.8
20220527220753 94 198 9.0 14.0 0.00 0.00 0.00 57 1012.8
20220527215752 94 185 9.0 13.0 0.00 0.00 0.00 57 1012.9
20220527215253 94 186 9.0 13.0 0.00 0.00 0.00 56 1012.9
20220527214803 94 169 9.0 13.0 0.00 0.00 0.00 57 1012.9
20220527214307 94 201 8.0 12.0 0.00 0.00 0.00 56 1013.0
20220527213753 94 178 9.0 13.0 0.00 0.00 0.00 56 1013.1
20220527213258 94 225 9.0 13.0 0.00 0.00 0.00 55 1013.2
20220527212757 94 190 9.0 14.0 0.00 0.00 0.00 53 1013.2
20220527212252 94 196 9.0 14.0 0.00 0.00 0.00 54 1013.2
20220527211751 94 203 9.0 15.0 0.00 0.00 0.00 57 1013.3
20220527211250 94 167 10.0 15.0 0.00 0.00 0.00 57 1013.3
20220527210802 94 200 10.0 15.0 0.00 0.00 0.00 58 1013.4
20220527210257 94 194 10.0 15.0 0.00 0.00 0.00 57 1013.6
20220527205752 94 197 10.0 14.0 0.00 0.00 0.00 59 1013.6
20220527205252 94 187 11.0 16.0 0.00 0.00 0.00 59 1013.7
20220527204749 94 197 10.0 16.0 0.00 0.00 0.00 59 1013.7
20220527204248 93 202 10.0 15.0 0.00 0.00 0.00 58 1013.8
20220527203749 94 213 10.0 15.0 0.00 0.00 0.00 60 1013.8
20220527203249 94 167 10.0 15.0 0.00 0.00 0.00 59 1013.9
20220527202800 93 200 10.0 15.0 0.00 0.00 0.00 60 1014.0
20220527202250 93 192 11.0 16.0 0.00 0.00 0.00 59 1014.1
20220527201750 93 203 10.0 16.0 0.00 0.00 0.00 61 1014.2
20220527201255 93 180 10.0 19.0 0.00 0.00 0.00 62 1014.3
20220527200754 93 192 10.0 19.0 0.00 0.00 0.00 62 1014.3
20220527200259 93 217 10.0 15.0 0.00 0.00 0.00 62 1014.3
20220527195802 93 215 9.0 16.0 0.00 0.00 0.00 63 1014.4
20220527195253 94 136 9.0 16.0 0.00 0.00 0.00 61 1014.4
20220527194747 94 165 9.0 15.0 0.00 0.00 0.00 63 1014.5
20220527194247 94 160 9.0 13.0 0.00 0.00 0.00 63 1014.6
20220527193747 94 200 10.0 15.0 0.00 0.00 0.00 64 1014.6
20220527193248 94 197 11.0 15.0 0.00 0.00 0.00 63 1014.7
20220527192750 94 199 10.0 15.0 0.00 0.00 0.00 65 1014.8
20220527192247 93 213 10.0 15.0 0.00 0.00 0.00 64 1014.9
20220527191748 93 175 10.0 16.0 0.00 0.00 0.00 62 1014.9
20220527191253 93 195 10.0 19.0 0.00 0.00 0.00 64 1014.9
20220527190745 93 209 10.0 19.0 0.00 0.00 0.00 63 1015.0
20220527190246 93 201 11.0 16.0 0.00 0.00 0.00 63 1015.1
20220527185805 94 188 11.0 20.0 0.00 0.00 0.00 62 1015.2
20220527185746 93 211 12.0 20.0 0.00 0.00 0.00 62 1015.2
20220527184746 94 207 10.0 15.0 0.00 0.00 0.00 63 1015.3
20220527184253 93 216 10.0 15.0 0.00 0.00 0.00 61 1015.4
20220527183750 94 231 9.0 14.0 0.00 0.00 0.00 61 1015.4
20220527183250 94 205 9.0 14.0 0.00 0.00 0.00 61 1015.4
20220527182745 94 190 10.0 15.0 0.00 0.00 0.00 61 1015.5
20220527182244 94 226 11.0 15.0 0.00 0.00 0.00 61 1015.4
20220527181745 93 201 11.0 16.0 0.00 0.00 0.00 61 1015.5
20220527181243 93 209 11.0 16.0 0.00 0.00 0.00 61 1015.6
20220527180744 93 219 11.0 16.0 0.00 0.00 0.00 62 1015.6
20220527180311 93 209 11.0 18.0 0.00 0.00 0.00 62 1015.7
20220527180253 93 218 10.0 16.0 0.00 0.00 0.00 62 1015.7
20220527180243 93 198 11.0 16.0 0.00 0.00 0.00 62 1015.8
20220527160240 89 227 10.0 14.0 0.00 0.00 0.00 64 1016.3
20220527155740 89 207 10.0 15.0 0.00 0.00 0.00 64 1016.3
20220527155241 88 243 11.0 15.0 0.00 0.00 0.00 63 1016.3
20220527154737 89 229 10.0 15.0 0.00 0.00 0.00 63 1016.2
20220527154237 89 223 10.0 15.0 0.00 0.00 0.00 64 1016.3
20220527153738 88 233 11.0 15.0 0.00 0.00 0.00 64 1016.3
20220527153238 88 207 11.0 16.0 0.00 0.00 0.00 64 1016.3
20220527152737 88 213 11.0 16.0 0.00 0.00 0.00 65 1016.2
20220527152239 87 230 12.0 21.0 0.00 0.00 0.00 64 1016.2
20220527151737 88 234 12.0 21.0 0.00 0.00 0.00 64 1016.2
20220527151238 88 213 12.0 18.0 0.00 0.00 0.00 64 1016.2
20220527150738 88 214 11.0 18.0 0.00 0.00 0.00 64 1016.2
20220527150240 88 236 10.0 15.0 0.00 0.00 0.00 66 1016.1
20220527145735 87 197 10.0 15.0 0.00 0.00 0.00 66 1016.1
20220527145236 87 207 10.0 16.0 0.00 0.00 0.00 67 1016.0
20220527144737 87 217 11.0 16.0 0.00 0.00 0.00 66 1016.1
20220527144237 86 218 11.0 16.0 0.00 0.00 0.00 67 1016.0
20220527143736 86 199 10.0 15.0 0.00 0.00 0.00 67 1015.9
20220527143235 85 223 9.0 15.0 0.00 0.00 0.00 67 1015.9
20220527142735 86 249 7.0 11.0 0.00 0.00 0.00 66 1015.8
20220527142235 85 232 7.0 12.0 0.00 0.00 0.00 67 1015.8
20220527141736 85 236 8.0 12.0 0.00 0.00 0.00 66 1015.7
20220527141235 85 226 8.0 10.0 0.00 0.00 0.00 66 1015.7
20220527140735 84 244 7.0 10.0 0.00 0.00 0.00 66 1015.7
20220527140235 84 226 6.0 9.0 0.00 0.00 0.00 65 1015.6
20220527135736 84 229 6.0 8.0 0.00 0.00 0.00 66 1015.7
20220527135236 84 229 6.0 9.0 0.00 0.00 0.00 66 1015.7
20220527134736 84 240 6.0 9.0 0.00 0.00 0.00 65 1015.6
20220527134235 84 233 6.0 9.0 0.00 0.00 0.00 65 1015.6
20220527133735 83 238 6.0 9.0 0.00 0.00 0.00 67 1015.6
20220527133235 83 225 7.0 12.0 0.00 0.00 0.00 66 1015.6
20220527132735 83 214 7.0 13.0 0.00 0.00 0.00 67 1015.5
20220527132238 83 242 7.0 13.0 0.00 0.00 0.00 66 1015.4
20220527131736 82 213 7.0 10.0 0.00 0.00 0.00 67 1015.4
20220527131235 82 246 7.0 10.0 0.00 0.00 0.00 67 1015.4
20220527130735 82 226 7.0 9.0 0.00 0.00 0.00 69 1015.3
20220527130235 82 230 6.0 8.0 0.00 0.00 0.00 70 1015.2
20220527125736 82 224 6.0 9.0 0.00 0.00 0.00 72 1015.2
20220527125235 81 217 6.0 9.0 0.00 0.00 0.00 73 1015.1
20220527124735 81 222 6.0 9.0 0.00 0.00 0.00 73 1015.1
20220527124237 80 231 5.0 9.0 0.00 0.00 0.00 74 1015.0
20220527123737 80 223 4.0 8.0 0.00 0.00 0.00 74 1014.9
20220527123236 80 219 4.0 7.0 0.00 0.00 0.00 73 1014.9
20220527122736 79 215 4.0 7.0 0.00 0.00 0.00 73 1014.8
20220527122237 79 211 4.0 7.0 0.00 0.00 0.00 73 1014.8
20220527121736 79 213 4.0 6.0 0.00 0.00 0.00 73 1014.8
20220527121238 79 213 4.0 6.0 0.00 0.00 0.00 72 1014.7
20220527120735 78 214 4.0 7.0 0.00 0.00 0.00 72 1014.7
20220527120235 78 215 5.0 7.0 0.00 0.00 0.00 72 1014.6
20220527115735 78 214 5.0 7.0 0.00 0.00 0.00 72 1014.6
20220527115236 78 215 5.0 7.0 0.00 0.00 0.00 71 1014.6
20220527114737 78 215 5.0 7.0 0.00 0.00 0.00 71 1014.5
20220527114235 78 216 5.0 9.0 0.00 0.00 0.00 71 1014.5
20220527113736 79 207 5.0 9.0 0.00 0.00 0.00 71 1014.4
20220527113237 79 207 5.0 7.0 0.00 0.00 0.00 71 1014.4
20220527112734 79 202 6.0 7.0 0.00 0.00 0.00 71 1014.4
20220527112236 79 198 6.0 7.0 0.00 0.00 0.00 71 1014.4
20220527111734 79 205 6.0 9.0 0.00 0.00 0.00 71 1014.3
20220527111234 79 211 7.0 11.0 0.00 0.00 0.00 71 1014.3
20220527110732 79 201 8.0 12.0 0.00 0.00 0.00 71 1014.2
20220527110231 79 208 8.0 12.0 0.00 0.00 0.00 71 1014.2
20220527105732 79 207 8.0 12.0 0.00 0.00 0.00 71 1014.2
20220527105232 79 200 9.0 14.0 0.00 0.00 0.00 70 1014.1
20220527104732 79 210 10.0 14.0 0.00 0.00 0.00 70 1014.1
20220527104232 79 188 10.0 14.0 0.00 0.00 0.00 70 1014.1
20220527103733 79 191 10.0 16.0 0.00 0.00 0.00 70 1014.1
20220527103233 79 191 10.0 16.0 0.00 0.00 0.00 70 1014.1
20220527102734 79 209 10.0 14.0 0.00 0.00 0.00 70 1014.2
20220527102232 79 197 11.0 16.0 0.00 0.00 0.00 70 1014.1
20220527101733 79 184 11.0 16.0 0.00 0.00 0.00 70 1014.1
20220527101231 79 198 10.0 14.0 0.00 0.00 0.00 70 1014.1
20220527100731 79 198 10.0 14.0 0.00 0.00 0.00 70 1014.1
20220527100231 79 202 10.0 14.0 0.00 0.00 0.00 70 1014.0
20220527095729 79 175 11.0 15.0 0.00 0.00 0.00 70 1013.9
20220527095230 79 189 11.0 15.0 0.00 0.00 0.00 70 1013.9
20220527094731 79 201 10.0 15.0 0.00 0.00 0.00 70 1013.9
20220527094231 79 202 10.0 13.0 0.00 0.00 0.00 70 1014.0
20220527093731 79 190 9.0 13.0 0.00 0.00 0.00 70 1014.0
20220527093230 79 205 8.0 13.0 0.00 0.00 0.00 70 1013.9
20220527092730 79 195 8.0 12.0 0.00 0.00 0.00 70 1013.9
20220527092228 79 186 8.0 13.0 0.00 0.00 0.00 70 1013.9
20220527091729 79 181 9.0 13.0 0.00 0.00 0.00 70 1013.9
20220527091230 79 193 9.0 13.0 0.00 0.00 0.00 70 1013.8
20220527090729 79 209 9.0 13.0 0.00 0.00 0.00 70 1013.7
20220527090228 79 197 9.0 12.0 0.00 0.00 0.00 70 1013.7
20220527085728 79 208 9.0 13.0 0.00 0.00 0.00 70 1013.7
20220527085230 79 205 9.0 13.0 0.00 0.00 0.00 70 1013.7
20220527084727 79 182 9.0 13.0 0.00 0.00 0.00 70 1013.7
20220527084228 79 198 9.0 13.0 0.00 0.00 0.00 70 1013.8
20220527083727 79 187 8.0 12.0 0.00 0.00 0.00 70 1013.8
20220527083226 79 171 8.0 13.0 0.00 0.00 0.00 70 1013.8
20220527082726 79 173 8.0 14.0 0.00 0.00 0.00 70 1013.8
20220527082226 79 192 8.0 14.0 0.00 0.00 0.00 70 1013.8
20220527081726 79 200 9.0 12.0 0.00 0.00 0.00 70 1013.8
20220527081226 79 206 9.0 13.0 0.00 0.00 0.00 70 1013.9
20220527080725 79 187 8.0 13.0 0.00 0.00 0.00 70 1013.9
20220527080227 79 168 8.0 13.0 0.00 0.00 0.00 70 1013.9
20220527075726 80 206 9.0 13.0 0.00 0.00 0.00 70 1014.0
20220527075225 80 185 9.0 13.0 0.00 0.00 0.00 70 1013.9
20220527074725 80 186 9.0 13.0 0.00 0.00 0.00 70 1013.9
20220527074224 80 205 8.0 12.0 0.00 0.00 0.00 70 1014.1
20220527073724 80 174 8.0 13.0 0.00 0.00 0.00 70 1014.1
20220527073223 80 198 8.0 13.0 0.00 0.00 0.00 70 1014.1
20220527072724 80 175 7.0 11.0 0.00 0.00 0.00 70 1014.1
20220527072224 80 166 7.0 11.0 0.00 0.00 0.00 70 1014.1
20220527071727 80 180 7.0 11.0 0.00 0.00 0.00 70 1014.2
20220527071224 80 157 7.0 11.0 0.00 0.00 0.00 70 1014.1
20220527070725 80 169 7.0 11.0 0.00 0.00 0.00 70 1014.2
20220527070221 80 173 7.0 12.0 0.00 0.00 0.00 70 1014.2
20220527065722 80 169 7.0 12.0 0.00 0.00 0.00 70 1014.1